Regional Weather Roundup
Issued by NWS Upton, NY

Current Version | Previous Version | Text Only | Print | Product List | Glossary On
Versions: 1 2 3 4 5 6 7 8 9 10 11 12 13 14 15 16 17 18 19 20 21 22 23 24 25 26 27
000
ASUS41 KOKX 270409
RWROKX

REGIONAL WEATHER ROUNDUP
NATIONAL WEATHER SERVICE NEW YORK NY
1200 AM EDT TUE JUN 27 2017

NOTE: "FAIR" INDICATES FEW OR NO CLOUDS BELOW 12,000 FEET WITH NO
SIGNIFICANT WEATHER AND/OR OBSTRUCTIONS TO VISIBILITY.

NYZ071-072-176-178-NJZ106-104-270500-
NEW YORK CITY METRO AREA

CITY           SKY/WX    TMP DP  RH WIND       PRES   REMARKS
Central Park   CLEAR     72  47  40 CALM      30.01S
Bronx Bot Gard   N/A     64  57  77 E2        30.01S
LaGuardia APRT CLEAR     73  57  57 S6        29.98S
Kennedy INTL   CLEAR     71  55  56 SW10      29.99F
Breezy Point     N/A     66 N/A N/A SW6         N/A
Newark/Liberty CLEAR     72  47  40 SW12      29.98S
Teterboro      CLEAR     69  48  47 CALM      29.98R
$$

NYZ177-179-078>081-270500-
LONG ISLAND NEW YORK

CITY           SKY/WX    TMP DP  RH WIND       PRES   REMARKS
Jones Beach      N/A     66 N/A N/A S3          N/A
Matinecock PT  NOT AVBL
Farmingdale    NOT AVBL
MacArthur/ISP  CLEAR     67  62  84 SW5       29.99S
Shirley        CLEAR     67  65  93 S5        30.00S
Mt Sinai Harb    N/A     66 N/A N/A S6          N/A
Westhampton    CLEAR     67  61  81 SW6       30.02S
East Hampton   FAIR      63  60  89 CALM      30.01R
Montauk          N/A     67  61  81 VRB7      30.02S
$$

NYZ052-065-067-270500-
HUDSON VALLEY

CITY           SKY/WX    TMP DP  RH WIND       PRES   REMARKS
White Plains   CLEAR     62  59  90 CALM      29.99S
Larchmont Harb   N/A     64 N/A N/A SW5         N/A
Croton O-T Hud   N/A     64 N/A N/A E2          N/A
Newburgh       CLEAR     66  52  59 SW6       29.99F
Montgomery     CLEAR     57  52  83 CALM      29.98S
Poughkeepsie   CLEAR     59  52  77 N5        29.98R
Albany         LGT RAIN  58  55  90 SE3       30.02F
$$

NJZ001-105-106-008-010-013-015-019>022-104-270500-
NEW JERSEY

CITY           SKY/WX    TMP DP  RH WIND       PRES   REMARKS
Newark/Liberty CLEAR     72  47  40 SW12      29.98S
Teterboro      CLEAR     69  48  47 CALM      29.98R
Caldwell       CLEAR     64  51  62 CALM      30.00R
Somerville     CLEAR     58  55  90 CALM      29.97S
Linden         FAIR      70  47  43 CALM      29.99S
Perth Amboy      N/A     70 N/A N/A SW5         N/A
Sussex         CLEAR     56  54  93 CALM      29.99F
Andover          N/A     57  54  89 CALM      30.00S
Trenton        CLEAR     67  51  56 CALM      29.99S
Millville      CLEAR     60  60 100 CALM      30.00S
Atlantic City  CLEAR     68  61  78 S6        30.01S
Wrightstown    CLEAR     62  53  72 SW3       30.01S
Toms River     CLEAR     58  51  78 CALM      30.01F
Belmar         CLEAR     66  51  58 S5        30.01S
$$

PAZ047>061-062-071-270500-
EASTERN PENNSYLVANIA

CITY           SKY/WX    TMP DP  RH WIND       PRES   REMARKS
Philadelphia   PTCLDY    70  54  56 S8        29.99S
Allentown      CLOUDY    66  53  63 NW8       30.01R
Scranton       CLOUDY    59  56  89 CALM      30.05S
$$

CTZ002-004>006-009-010-012-RIZ004-006-007-MAZ004-011-015-270500-
SOUTHERN NEW ENGLAND
 IN CT

CITY           SKY/WX    TMP DP  RH WIND       PRES   REMARKS
Bradley INTL   PTCLDY    60  54  80 N5        29.99F
Hartford       CLEAR     65  54  67 S3        29.99R
Danbury        CLEAR     61  57  87 N3        30.01R
Wtrbury/Oxford CLEAR     61  52  72 CALM      30.02S
Bridgeport     CLEAR     68  62  81 CALM      29.99S
Meriden        CLEAR     60  54  80 CALM      29.99S
New Haven      CLEAR     64  58  80 CALM      30.00S
Chester        FAIR      64  59  82 CALM      30.01S
Groton         CLEAR     61  57  87 CALM      30.00S
Wilimantic     CLEAR     63  55  75 CALM      30.00S

 IN RI

CITY           SKY/WX    TMP DP  RH WIND       PRES   REMARKS
Providence     CLEAR     62  57  83 S6        30.01R
Block Island   CLEAR     65  58  78 SW10      30.02S
Westerly       CLEAR     65  59  81 CALM      30.01S
 IN MA

CITY           SKY/WX    TMP DP  RH WIND       PRES   REMARKS
Boston         PTCLDY    67  52  58 N7        30.00R
Worcester      CLEAR     59  52  77 CALM      30.01S
Westfield      MOCLDY    59  56  89 N10         N/A
Provincetown   CLEAR     64  60  87 S8        30.00S
Nantucket      CLEAR     61  61 100 SW7       30.02S
$$

ANZ330-335-338-340-345-350-353-355-270500-
COASTAL MARINE OBSERVATIONS


STATION/POSITION TIME  SKY/WX   TEMP    WIND        PRES    VSBY  WAVE
                                AIR SEA DIR/SP/G                  HT/PER
                 (UTC)          (F)     (DEG/KT/KT) (MB)    (MI)  (FT/S)
NY HARB ENTRANCE 0350            68 67  210/ 10/ 12 1015.3          2/ 7
20 S FIRE ISLAND 0350            70 70  230/ 14/ 17 1015.2          2/ 4
GREAT SOUTH BAY  0330            70 76  210/ 14/ 16   N/A
23 SSW MONTAUK P 0350            67 66              1016.3          3/ 4
15 E BARNEGAT LI 0330               65                N/A           2/ 8
HUDSON CANYON    0250            69 68  170/  8/ 10 1016.4          2/ 8
KINGS POINT      0336            68 66  190/  7/  8 1015.1
EXECUTION ROCKS  0345            67     170/  6/  8   N/A
CENTRAL LI SOUND 0330            69     210/ 14/ 17   N/A           2
EASTERN LI SOUND NOT AVBL
ROBBINS REEF     0336                   230/ 10/ 11 1015.7
$$


>>>>>>>>>>>>>>>>>>>>>>>>>>>> KEY <<<<<<<<<<<<<<<<<<<<<<<<<<<
>                                                          <
>     SKY/WX - Sky Condition/Present Weather               <
>     TMP    - Temperature in Fahrenheit                   <
>     DP     - Dew Point in Fahrenheit                     <
>     RH     - Relative Humidity in Percent                <
>     WIND   - Direction (from) and Speed in MPH           <
>     PRES   - Mean Sea Level Pressure (inches of Hg)      <
>     WCI    - Wind Chill Index                            <
>     VSB    - VISIBILITY IN MILES                         <
>     HX     - HEAT INDEX                                  <
>     TC     - TEMPERATURE IN CELSIUS                      <
>     VRB    - VARIABLE WIND DIRECTION                     <
>                                                          <
>>>>>>>>>>>>>>>>>>>>>>>>>>>> KEY <<<<<<<<<<<<<<<<<<<<<<<<<<<




USA.gov is the U.S. government's official web portal to all federal, state and local government web resources and services.